When you browse on this site, cookies collect data to enhance your experience and personalize the content and advertising you see.
Visit our Privacy Policy to learn more. By continuing to use the site, you agree to this use of cookies and data.
  • In Romania
  • List of Countries
  • For 7 days
  • Water Temperature
  • Weather Map
  • Weather Widgets
  • user-avatar
    Login

    Hourly Weather Aylesbury

    Today, 23 February, Sunday

    Time Temperature Precipitation Wind Pressure Humidity
    00:00 +7°C° 0 mm 5 mps 756 mmHg 87%
    01:00 +7°C° 0.3 mm 6 mps 754 mmHg 88%
    02:00 +6°C° 0.3 mm 7 mps 753 mmHg 89%
    03:00 +6°C° 0.3 mm 9 mps 751 mmHg 90%
    04:00 +8°C° 0.3 mm 10 mps 751 mmHg 89%
    05:00 +9°C° 0.3 mm 11 mps 750 mmHg 87%
    06:00 +11°C° 0 mm 9 mps 749 mmHg 84%
    07:00 +11°C° 0.3 mm 10 mps 749 mmHg 84%
    08:00 +10°C° 0.3 mm 12 mps 749 mmHg 85%
    09:00 +10°C° 0.3 mm 13 mps 749 mmHg 85%
    10:00 +10°C° 0.1 mm 12 mps 750 mmHg 83%
    11:00 +9°C° 0.1 mm 11 mps 751 mmHg 81%
    12:00 +9°C° 0.1 mm 10 mps 753 mmHg 79%
    13:00 +8°C° 0.1 mm 9 mps 754 mmHg 78%
    14:00 +7°C° 0.1 mm 8 mps 754 mmHg 76%
    15:00 +6°C° 0.1 mm 7 mps 755 mmHg 75%
    16:00 +6°C° 0 mm 5 mps 756 mmHg 76%
    17:00 +5°C° 0 mm 4 mps 757 mmHg 78%
    18:00 +5°C° 0 mm 2 mps 758 mmHg 80%
    19:00 +5°C° 0 mm 2 mps 759 mmHg 80%
    20:00 +5°C° 0 mm 2 mps 759 mmHg 81%
    21:00 +6°C° 0 mm 1 mps 760 mmHg 81%
    22:00 +6°C° 0 mm 1 mps 759 mmHg 80%
    23:00 +6°C° 0 mm 1 mps 759 mmHg 79%

    Tomorrow, 24 February, Monday

    Time Temperature Precipitation Wind Pressure Humidity
    00:00 +6°C° 0 mm 1 mps 759 mmHg 78%
    01:00 +5°C° 0.1 mm 2 mps 758 mmHg 80%
    02:00 +4°C° 0.1 mm 3 mps 757 mmHg 82%
    03:00 +4°C° 0.1 mm 4 mps 756 mmHg 84%
    04:00 +5°C° 0.3 mm 5 mps 754 mmHg 88%
    05:00 +7°C° 0.3 mm 6 mps 753 mmHg 91%
    06:00 +8°C° 0.3 mm 6 mps 751 mmHg 95%
    07:00 +7°C° 0 mm 8 mps 750 mmHg 92%
    08:00 +8°C° 0 mm 9 mps 749 mmHg 90%
    09:00 +8°C° 0 mm 10 mps 748 mmHg 87%
    10:00 +8°C° 0.8 mm 10 mps 747 mmHg 88%
    11:00 +8°C° 0.8 mm 10 mps 747 mmHg 89%
    12:00 +8°C° 0.8 mm 10 mps 746 mmHg 90%
    13:00 +8°C° 0.5 mm 11 mps 745 mmHg 87%
    14:00 +9°C° 0.5 mm 11 mps 745 mmHg 84%
    15:00 +9°C° 0.5 mm 11 mps 744 mmHg 81%
    16:00 +8°C° 0 mm 10 mps 744 mmHg 80%
    17:00 +7°C° 0 mm 9 mps 745 mmHg 79%
    18:00 +6°C° 0 mm 9 mps 745 mmHg 78%
    19:00 +5°C° 0 mm 8 mps 745 mmHg 78%
    20:00 +4°C° 0 mm 8 mps 745 mmHg 77%
    21:00 +2°C° 0 mm 8 mps 746 mmHg 77%
    22:00 +2°C° 0 mm 8 mps 746 mmHg 77%
    23:00 +1°C° 0 mm 8 mps 746 mmHg 77%

    Day after tomorrow, 25 February, Tuesday

    Time Temperature Precipitation Wind Pressure Humidity
    00:00 0°C° 0 mm 7 mps 746 mmHg 78%
    01:00 0°C° 0 mm 7 mps 746 mmHg 79%
    02:00 0°C° 0 mm 7 mps 745 mmHg 80%
    03:00 0°C° 0 mm 7 mps 745 mmHg 81%
    04:00 0°C° 0 mm 7 mps 745 mmHg 81%
    05:00 +1°C° 0 mm 6 mps 744 mmHg 81%
    06:00 -1°C° 0 mm 6 mps 744 mmHg 81%
    07:00 +1°C° 0 mm 6 mps 744 mmHg 79%
    08:00 0°C° 0 mm 7 mps 744 mmHg 77%
    09:00 +1°C° 0 mm 8 mps 744 mmHg 74%
    10:00 +2°C° 0 mm 8 mps 744 mmHg 70%
    11:00 +4°C° 0 mm 8 mps 744 mmHg 67%
    12:00 +5°C° 0 mm 8 mps 744 mmHg 63%
    13:00 +5°C° 0.1 mm 8 mps 743 mmHg 64%
    14:00 +5°C° 0.1 mm 8 mps 743 mmHg 65%
    15:00 +5°C° 0.1 mm 8 mps 742 mmHg 66%
    16:00 +2°C° 0.9 mm 8 mps 741 mmHg 74%
    17:00 +1°C° 0.9 mm 8 mps 740 mmHg 83%
    18:00 -1°C° 0.9 mm 8 mps 739 mmHg 91%
    19:00 -1°C° 0.2 mm 8 mps 739 mmHg 88%
    20:00 -1°C° 0.2 mm 8 mps 739 mmHg 85%
    21:00 -2°C° 0.2 mm 8 mps 739 mmHg 83%
    22:00 -2°C° 0 mm 8 mps 739 mmHg 82%
    23:00 -4°C° 0 mm 8 mps 739 mmHg 82%

    26 February, Wednesday

    Time Temperature Precipitation Wind Pressure Humidity
    00:00 -4°C° 0 mm 8 mps 739 mmHg 81%
    01:00 -4°C° 0 mm 8 mps 739 mmHg 81%
    02:00 -4°C° 0 mm 8 mps 739 mmHg 80%
    03:00 -4°C° 0 mm 8 mps 740 mmHg 80%
    04:00 -4°C° 0 mm 8 mps 740 mmHg 79%
    05:00 -4°C° 0 mm 8 mps 741 mmHg 79%
    06:00 -4°C° 0 mm 8 mps 741 mmHg 78%
    07:00 -2°C° 0 mm 8 mps 742 mmHg 77%
    08:00 -1°C° 0 mm 8 mps 743 mmHg 76%
    09:00 0°C° 0 mm 8 mps 744 mmHg 76%
    10:00 +1°C° 0.1 mm 8 mps 745 mmHg 73%
    11:00 +2°C° 0.1 mm 9 mps 745 mmHg 71%
    12:00 +3°C° 0.1 mm 9 mps 746 mmHg 69%
    13:00 +3°C° 0.2 mm 9 mps 747 mmHg 67%
    14:00 +4°C° 0.2 mm 8 mps 747 mmHg 65%
    15:00 +4°C° 0.2 mm 7 mps 747 mmHg 64%
    16:00 +2°C° 0 mm 7 mps 748 mmHg 68%
    17:00 +1°C° 0 mm 6 mps 748 mmHg 72%
    18:00 0°C° 0 mm 5 mps 749 mmHg 76%
    19:00 0°C° 0 mm 4 mps 749 mmHg 78%
    20:00 -1°C° 0 mm 4 mps 749 mmHg 79%
    21:00 0°C° 0 mm 3 mps 749 mmHg 81%
    22:00 0°C° 0 mm 3 mps 748 mmHg 81%
    23:00 -1°C° 0 mm 4 mps 748 mmHg 82%

    27 February, Thursday

    Time Temperature Precipitation Wind Pressure Humidity
    00:00 -1°C° 0 mm 4 mps 747 mmHg 82%
    01:00 0°C° 0 mm 4 mps 746 mmHg 83%
    02:00 0°C° 0 mm 4 mps 745 mmHg 84%
    03:00 0°C° 0 mm 5 mps 744 mmHg 86%
    04:00 +1°C° 1.2 mm 5 mps 742 mmHg 89%
    05:00 +1°C° 1.2 mm 6 mps 740 mmHg 93%
    06:00 0°C° 1.2 mm 7 mps 738 mmHg 96%
    07:00 0°C° 2.6 mm 7 mps 736 mmHg 96%
    08:00 0°C° 2.6 mm 8 mps 735 mmHg 96%
    09:00 0°C° 2.6 mm 8 mps 733 mmHg 96%
    10:00 +2°C° 0.4 mm 7 mps 733 mmHg 96%
    11:00 +3°C° 0.4 mm 7 mps 732 mmHg 95%
    12:00 +4°C° 0.4 mm 6 mps 732 mmHg 95%
    13:00 +3°C° 0 mm 7 mps 734 mmHg 93%
    14:00 +1°C° 0 mm 9 mps 735 mmHg 91%
    15:00 0°C° 0 mm 10 mps 736 mmHg 89%
    16:00 0°C° 0 mm 9 mps 738 mmHg 88%
    17:00 0°C° 0 mm 8 mps 739 mmHg 87%
    18:00 +1°C° 0 mm 6 mps 741 mmHg 87%
    19:00 -1°C° 0 mm 6 mps 742 mmHg 88%
    20:00 0°C° 0 mm 5 mps 743 mmHg 89%
    21:00 -1°C° 0 mm 5 mps 743 mmHg 90%
    22:00 -1°C° 0 mm 4 mps 743 mmHg 90%
    23:00 -1°C° 0 mm 4 mps 744 mmHg 90%

    28 February, Friday

    Time Temperature Precipitation Wind Pressure Humidity
    00:00 -1°C° 0 mm 4 mps 744 mmHg 91%
    01:00 0°C° 0.6 mm 4 mps 743 mmHg 92%
    02:00 +1°C° 0.6 mm 5 mps 743 mmHg 93%
    03:00 +1°C° 0.6 mm 5 mps 742 mmHg 95%
    04:00 +1°C° 0.3 mm 4 mps 742 mmHg 95%
    05:00 +1°C° 0.3 mm 4 mps 742 mmHg 95%
    06:00 +2°C° 0.3 mm 3 mps 742 mmHg 94%
    07:00 +2°C° 0 mm 3 mps 742 mmHg 92%
    08:00 +3°C° 0 mm 3 mps 742 mmHg 89%
    09:00 +3°C° 0 mm 3 mps 741 mmHg 86%
    10:00 +4°C° 0 mm 3 mps 741 mmHg 83%
    11:00 +5°C° 0 mm 3 mps 741 mmHg 80%
    12:00 +7°C° 0 mm 3 mps 740 mmHg 77%
    13:00 +5°C° 0.5 mm 3 mps 739 mmHg 83%
    14:00 +4°C° 0.5 mm 3 mps 738 mmHg 88%
    15:00 +4°C° 0.5 mm 2 mps 737 mmHg 93%
    16:00 +4°C° 0.2 mm 2 mps 736 mmHg 94%
    17:00 +4°C° 0.2 mm 2 mps 735 mmHg 95%
    18:00 +3°C° 0.2 mm 2 mps 735 mmHg 95%
    19:00 +3°C° 0 mm 2 mps 734 mmHg 95%
    20:00 +2°C° 0 mm 3 mps 733 mmHg 96%
    21:00 +2°C° 0 mm 3 mps 732 mmHg 96%
    22:00 +2°C° 2 mm 3 mps 732 mmHg 97%
    23:00 +3°C° 2 mm 2 mps 731 mmHg 97%
    Show more